Location: Mason Neck State Park
(38.6428°N, 77.1981°W)
Time: 11:20:40
(UTC-04:00)

ISS - Visible Passes

Search period start: 31 July 2015 00:00
Search period end: 10 August 2015 00:00
Orbit: 401 x 403 km, 51.6° (Epoch: 31 July)

Date Brightness Start Highest point End Pass type
(mag) Time Alt. Az. Time Alt. Az. Time Alt. Az.
31 Jul -0.2 03:11:45 10° NNW 03:13:49 16° NNE 03:15:56 10° ENE visible
31 Jul -3.4 04:47:24 10° NW 04:50:40 88° NE 04:53:56 10° SE visible
31 Jul -3.3 21:25:36 10° SW 21:28:47 56° SE 21:31:59 10° ENE visible
31 Jul -0.6 23:02:57 10° WNW 23:05:26 20° NNW 23:07:56 10° NNE visible
01 Aug -2.2 03:55:02 14° NW 03:57:39 44° NE 04:00:47 10° ESE visible
01 Aug -1.8 05:31:35 10° W 05:33:52 17° SW 05:36:05 10° S visible
01 Aug -1.4 22:09:19 10° W 22:12:16 31° NNW 22:15:14 10° NE visible
01 Aug 0.3 23:49:01 10° NNW 23:49:32 10° N 23:50:01 10° N visible
02 Aug -1.9 04:42:23 23° S 04:42:23 23° S 04:44:01 10° SSE visible
02 Aug -2.6 21:15:59 10° WSW 21:19:10 56° NW 21:22:24 10° NE visible
02 Aug 0.0 22:54:33 10° NW 22:56:12 13° NNW 22:57:48 10° NNE visible
03 Aug -0.4 22:00:34 10° WNW 22:02:55 18° NNW 22:05:14 10° NNE visible
04 Aug -1.0 21:06:50 10° W 21:09:41 27° NNW 21:12:32 10° NNE visible
05 Aug -0.1 21:52:12 10° NW 21:53:38 12° NNW 21:55:00 10° N visible
06 Aug -0.4 20:58:07 10° WNW 21:00:18 16° NNW 21:02:27 10° NNE visible
07 Aug 0.0 23:21:19 10° N 23:21:46 10° N 23:21:46 10° N visible
08 Aug -0.2 20:49:50 10° NW 20:50:59 11° NNW 20:52:05 10° N visible
09 Aug -0.2 23:10:48 10° NNW 23:11:43 13° N 23:11:43 13° N visible
